User: anonymous   Login
Location: Unspecified
(0.0000°N, 0.0000°E)
Time: 10:47:38
(UTC+00:00)
Language:

NATO 4A - Orbit

View from above orbital plane
View from above orbital plane
View from above satellite
View from above satellite

Ground track
Ground track

The orbit data is extracted from the following two-line orbital elements,

1 21047U 91001A   17196.13243731 -.00000101 +00000-0 +00000-0 0  9996
2 21047 013.0909 016.9782 0004815 165.9632 188.0967 00.98284059096088
Epoch (UTC): 15 July 2017 03:10:42
Eccentricity: 0.0004815
inclination: 13.0909°
perigee height: 36332 km
apogee height: 36373 km
right ascension of ascending node: 16.9782°
argument of perigee: 165.9632°
revolutions per day: 0.98284059
mean anomaly at epoch: 188.0967°
orbit number at epoch: 9608

The dashed part of the orbit path shows where the satellite is in the earth's shadow,  

DLR